Tracking 17886 objects as of 8-December-2016
HD Live streaming from Space Station
objects crossing your sky now

SL-14 R/B

Track SL-14 R/B now!
10-day predictions


NORAD ID: 16720
Int'l Code: 1986-034B
Perigee: 611.8 km
Apogee: 640.6 km
Inclination: 82.6 °
Period: 97.1 minutes
Semi major axis: 6997 km
RCS: 3.5564 m2 (large)
Launch date: May 15, 1986
Source: Commonwealth of Independent States (former USSR) (CIS)
Launch site: PLESETSK MISSILE AND SPACE COMPLEX (PKMTR)

Note: This is a ROCKET BODY
Your satellite tracking list
Your tracking list is empty





NASA's NSSDC Master Catalog

Two Line Element Set (TLE):
1 16720U 86034B   16343.20191671  .00000077  00000-0  64036-5 0  9999
2 16720  82.5556  59.5599 0020580  16.0089  40.9719 14.83265458650951
Source of the keplerian elements: AFSPC